Location: Newark
(49.8969°N, 3.3422°E)
Time: 23:17:36
(UTC+00:00)

deb Explorer IX - Pass Details

Date: 25 January 2020
Orbit: 549 x 1099 km, 38.8° (Epoch: 27 February)

Event Time Altitude Azimuth Distance (km) Brightness Sun altitude
Rises 02:51:02 0° 266° (W) 3,897 - -44.0°
Reaches altitude 10° 02:54:59 10° 247° (WSW) 2,897 - -43.5°
Maximum altitude 02:59:04 16° 212° (SSW) 2,388 - -42.9°
Drops below altitude 10° 03:02:58 10° 176° (S) 2,733 - -42.3°
Sets 03:06:32 0° 156° (SSE) 3,575 - -41.8°
